Location: French Creek State Gamelands
(40.1750°N, 75.7969°W)
Time: 12:37:01
(UTC-04:00)

ISS - All Passes

Search period start: 28 August 2016 00:00
Search period end: 07 September 2016 00:00
Orbit: 402 x 406 km, 51.6° (Epoch: 29 August)

Date Brightness Start Highest point End Pass type
(mag) Time Alt. Az. Time Alt. Az. Time Alt. Az.
28 Aug - 08:27:29 10° SSW 08:30:31 35° SE 08:33:33 10° ENE daylight
28 Aug - 10:04:05 10° W 10:07:01 29° NNW 10:09:56 10° NE daylight
28 Aug - 11:42:54 10° NNW 11:44:19 12° N 11:45:43 10° NNE daylight
28 Aug - 13:20:02 10° NNW 13:21:53 14° NNE 13:23:45 10° NE daylight
28 Aug - 14:55:48 10° NW 14:59:00 46° NNE 15:02:11 10° ESE daylight
28 Aug - 16:32:51 10° W 16:35:14 19° SW 16:37:36 10° S daylight
29 Aug - 07:35:57 10° S 07:38:18 18° SE 07:40:37 10° E daylight
29 Aug - 09:11:20 10° WSW 09:14:31 47° NNW 09:17:43 10° NE daylight
29 Aug - 10:49:44 10° NW 10:51:37 14° NNW 10:53:29 10° NNE daylight
29 Aug - 12:27:47 10° NNW 12:29:11 12° N 12:30:34 10° NNE daylight
29 Aug - 14:03:34 10° NW 14:06:30 28° NNE 14:09:24 10° E daylight
29 Aug - 15:39:57 10° WNW 15:43:00 36° SW 15:46:02 10° SSE daylight
30 Aug - 08:18:48 10° SW 08:22:05 90° NW 08:25:23 10° NE daylight
30 Aug - 09:56:34 10° WNW 09:58:56 18° NNW 10:01:19 10° NNE daylight
30 Aug - 11:35:18 10° NNW 11:36:26 11° N 11:37:34 10° NNE daylight
30 Aug - 13:11:23 10° NNW 13:13:54 20° NNE 13:16:25 10° ENE daylight
30 Aug - 14:47:23 10° NW 14:50:40 74° SW 14:53:56 10° SE daylight
31 Aug - 07:26:36 10° SSW 07:29:43 44° SE 07:32:52 10° ENE daylight
31 Aug - 09:03:31 10° W 09:06:18 25° NNW 09:09:07 10° NNE daylight
31 Aug - 10:42:24 10° NNW 10:43:40 12° N 10:44:57 10° NNE daylight
31 Aug - 12:19:12 10° NNW 12:21:14 15° NNE 12:23:15 10° NE daylight
31 Aug - 13:55:01 10° NW 13:58:15 57° NE 14:01:29 10° ESE daylight
31 Aug - 15:32:25 10° W 15:34:24 15° SW 15:36:22 10° SSW daylight
01 Sep - 06:34:48 10° S 06:37:26 22° SE 06:40:05 10° E daylight
01 Sep - 08:10:38 10° WSW 08:13:45 39° NNW 08:16:52 10° NE daylight
01 Sep - 09:49:12 10° NW 09:50:55 13° NNW 09:52:37 10° NNE daylight
01 Sep - 11:26:57 10° NNW 11:28:30 13° N 11:30:01 10° NE daylight
01 Sep - 13:02:42 10° NW 13:05:44 33° NNE 13:08:45 10° E daylight
01 Sep - 14:39:16 10° WNW 14:42:09 29° SW 14:45:02 10° SSE daylight
02 Sep - 05:43:58 10° SSE 05:45:13 12° SE 05:46:28 10° ESE visible
02 Sep - 07:18:00 10° WSW 07:21:15 72° NW 07:24:32 10° NE daylight
02 Sep - 08:55:59 10° WNW 08:58:11 16° NNW 09:00:24 10° NNE daylight
02 Sep - 10:34:32 10° NNW 10:35:43 11° N 10:36:53 10° NNE daylight
02 Sep - 12:10:28 10° NNW 12:13:08 22° NNE 12:15:46 10° ENE daylight
02 Sep - 13:46:34 10° WNW 13:49:49 58° SW 13:53:02 10° SE daylight
03 Sep - 06:25:37 10° SW 06:28:49 57° SE 06:32:03 10° ENE daylight
03 Sep - 08:02:50 10° WNW 08:05:30 22° NNW 08:08:10 10° NNE daylight
03 Sep - 09:41:43 10° NNW 09:42:55 11° N 09:44:06 10° NNE daylight
03 Sep - 11:18:15 10° NNW 11:20:26 16° NNE 11:22:38 10° ENE daylight
03 Sep - 12:54:06 10° NW 12:57:23 70° NE 13:00:39 10° ESE daylight
03 Sep - 14:32:05 10° WSW 14:33:26 12° SW 14:34:47 10° SSW daylight
04 Sep - 05:33:38 10° SSW 05:36:28 28° SE 05:39:20 10° ENE visible
04 Sep - 07:09:51 10° W 07:12:52 33° NNW 07:15:55 10° NE daylight
04 Sep - 08:48:34 10° NW 08:50:06 13° N 08:51:39 10° NNE daylight
04 Sep - 10:26:00 10° NNW 10:27:41 13° NNE 10:29:22 10° NE daylight
04 Sep - 12:01:44 10° NW 12:04:51 38° NNE 12:07:58 10° ESE daylight
04 Sep - 13:38:30 10° WNW 13:41:11 23° SW 13:43:51 10° S daylight
05 Sep - 04:42:17 10° SSE 04:44:11 15° SE 04:46:06 10° E visible
05 Sep - 06:17:05 10° WSW 06:20:19 58° NNW 06:23:34 10° NE daylight
05 Sep - 07:55:18 10° NW 07:57:19 15° NNW 07:59:22 10° NNE daylight
05 Sep - 09:33:37 10° NNW 09:34:53 12° N 09:36:09 10° NNE daylight
05 Sep - 11:09:27 10° NNW 11:12:14 25° NNE 11:15:01 10° E daylight
05 Sep - 12:45:40 10° WNW 12:48:50 46° SW 12:51:59 10° SSE daylight
06 Sep - 05:24:35 10° SW 05:27:49 72° SE 05:31:06 10° ENE visible
06 Sep - 07:02:04 10° WNW 07:04:35 20° NNW 07:07:06 10° NNE daylight
06 Sep - 08:40:55 10° NNW 08:42:02 11° N 08:43:10 10° NNE daylight
06 Sep - 10:17:11 10° NNW 10:19:32 18° NNE 10:21:53 10° ENE daylight
06 Sep - 11:53:06 10° NW 11:56:24 87° NE 11:59:40 10° SE daylight
